Location: Tom
(33.0437°N, 96.9452°W)
Time: 05:38:33
(UTC-06:00)

N. Korean satellite - Pass Details

Date: 28 January 2019
Orbit: 456 x 510 km, 97.2° (Epoch: 23 February)

Event Time Altitude Azimuth Distance (km) Brightness Sun altitude
Rises 06:36:26 0° 11° (N) 2,583 10.2 -10.7°
Reaches altitude 10° 06:38:32 10° 11° (N) 1,688 9.3 -10.2°
Maximum altitude 06:42:11 89° 278° (W) 490 6.5 -9.5°
Drops below altitude 10° 06:45:43 10° 193° (SSW) 1,644 9.3 -8.8°
Sets 06:47:44 0° 193° (SSW) 2,509 10.2 -8.4°
